User: anonymous   Login
Location: Eimen
(51.8766°N, 9.7806°E)
Time: 13:28:18
(UTC+00:00)
Language:

ASTEX 1 - Orbit

View from above orbital plane
View from above orbital plane
View from above satellite
View from above satellite

Ground track
Ground track

The orbit data is extracted from the following two-line orbital elements,

1 05560U 71089A   24195.87721458  .00001070  00000-0  27971-3 0  9991
2 05560  92.7219 316.4662 0014631 329.8207  30.2154 14.49444784774790
Epoch (UTC): 13 July 2024 21:03:11
Eccentricity: 0.0014631
inclination: 92.7219°
perigee height: 717 km
apogee height: 738 km
right ascension of ascending node: 316.4662°
argument of perigee: 329.8207°
revolutions per day: 14.49444784
mean anomaly at epoch: 30.2154°
orbit number at epoch: 77479

The dashed part of the orbit path shows where the satellite is in the earth's shadow,  

DLR